Terug naar catalogus

STARLINK-2648

ActiefCommunicatieVLEO
NORAD 48679·PAYLOAD·🇺🇸 United States

Gelanceerd May 26, 2021 vanaf Cape Canaveral Space Force Station

Loading…

Volgende Passages (komende 24 uur)

TLE

VersSource: CelesTrak SupGP

Epoch: Sep 14, 2026, 12:42 UTC

1 48679C 21044AT  26257.52965278  .00022945  00000+0  73839-3 0  2572
2 48679  53.1586 316.6121 0001166  73.3976  59.1994 15.31667060    16

Volg STARLINK-2648 in realtime met AllMySat

Download on the App Store